Location: ????????
(56.1167°N, 38.6333°E)
Time: 08:38:30
(UTC+00:00)

Cosmos 2084 Rocket - Pass Details

Date: 18 November 2025
Orbit: 548 x 566 km, 62.8° (Epoch: 14 December)

Event Time Altitude Azimuth Distance (km) Brightness Sun altitude
Rises 15:00:21 0° 236° (SW) 2,741 8.3 -14.6°
Reaches altitude 10° 15:02:34 10° 237° (WSW) 1,852 7.2 -14.9°
Maximum altitude 15:06:44 81° 325° (NW) 577 3.4 -15.4°
Enters shadow 15:09:02 26° 51° (NE) 1,127 4.4 -15.8°
